GW7277 Weather Reports


time (UTC)temp
F
wind
direction
speed
knots
gust
knots
rain 1hr
in
rain 24hr
in
rain mn
in
humidity
%
barometer
mb
20260507214553 84 69 3.5 13.0 0.00 0.00 0.00 72 1014.8
20260507213053 84 69 5.2 11.3 0.00 0.00 0.00 71 1014.6
20260507211553 84 31 4.3 9.6 0.00 0.00 0.00 72 1014.5
20260507210115 84 125 4.3 12.2 0.00 0.00 0.00 71 1014.5
20260507204602 85 95 7.0 12.2 0.00 0.00 0.00 71 1014.5
20260507203058 85 80 5.2 13.0 0.00 0.00 0.00 70 1014.6
20260507201553 85 79 4.3 13.0 0.00 0.00 0.00 72 1014.6
20260507200105 85 39 6.1 13.9 0.00 0.00 0.00 71 1014.7
20260507194553 85 97 6.1 13.9 0.00 0.00 0.00 72 1014.7
20260507193113 86 74 6.1 14.8 0.00 0.00 0.00 69 1014.9
20260507191600 86 58 7.0 12.2 0.00 0.00 0.00 70 1015.0
20260507190054 87 61 5.2 13.0 0.00 0.00 0.00 68 1015.1
20260507184554 87 70 4.3 12.2 0.00 0.00 0.00 68 1015.3
20260507183102 88 40 5.2 12.2 0.00 0.00 0.00 65 1015.3
20260507181554 87 72 4.3 13.0 0.00 0.00 0.00 67 1015.3
20260507180058 87 41 5.2 11.3 0.00 0.00 0.00 67 1015.6
20260507174603 88 79 4.3 12.2 0.00 0.00 0.00 67 1015.9
20260507173134 88 35 2.6 9.6 0.00 0.00 0.00 66 1016.0
20260507171556 88 46 3.5 13.9 0.00 0.00 0.00 67 1016.1
20260507170055 88 84 3.5 10.4 0.00 0.00 0.00 67 1016.4
20260507164606 87 58 6.1 11.3 0.00 0.00 0.00 68 1016.5
20260507163054 86 34 6.1 13.9 0.00 0.00 0.00 68 1016.6
20260507161607 86 54 7.0 14.8 0.00 0.00 0.00 69 1016.7
20260507160119 87 343 4.3 13.0 0.00 0.00 0.00 69 1016.9
20260507154557 87 53 5.2 12.2 0.00 0.00 0.00 69 1017.0
20260507153055 86 72 5.2 11.3 0.00 0.00 0.00 70 1017.2
20260507151559 86 43 5.2 11.3 0.00 0.00 0.00 70 1017.4
20260507150053 86 3 6.1 12.2 0.00 0.00 0.00 70 1017.4
20260507144601 86 28 5.2 13.0 0.00 0.00 0.00 71 1017.5
20260507143100 86 124 3.5 11.3 0.00 0.00 0.00 71 1017.5
20260507141618 85 84 5.2 12.2 0.00 0.00 0.00 72 1017.6
20260507134607 85 91 5.2 11.3 0.00 0.00 0.00 72 1017.8
20260507133054 83 43 5.2 10.4 0.00 0.00 0.00 74 1017.6
20260507131556 85 36 1.7 8.7 0.00 0.00 0.00 73 1017.5
20260507130051 84 41 2.6 7.0 0.00 0.00 0.00 74 1017.4
20260507124552 85 89 4.3 6.1 0.00 0.00 0.00 70 1017.3
20260507123054 85 79 3.5 6.1 0.00 0.00 0.00 71 1017.2
20260507121550 84 51 2.6 5.2 0.00 0.00 0.00 73 1017.1
20260507120054 83 113 2.6 6.1 0.00 0.00 0.00 75 1016.9
20260507114556 83 45 2.6 5.2 0.00 0.00 0.00 74 1016.8
20260507113052 82 136 1.7 4.3 0.00 0.00 0.00 74 1016.6
20260507111559 81 96 1.7 4.3 0.00 0.00 0.00 76 1016.2
20260507110052 81 109 0.9 3.5 0.00 0.00 0.00 76 1016.5
20260507104554 79 143 1.7 4.3 0.00 0.00 0.00 79 1016.4
20260507103056 78 92 0.0 2.6 0.00 0.00 0.00 81 1016.5
20260507101602 78 141 0.9 3.5 0.00 0.00 0.00 81 1016.3
20260507100056 78 120 1.7 6.1 0.00 0.00 0.00 81 1016.2
20260507094552 78 117 0.9 4.3 0.00 0.00 0.00 81 1016.1
20260507093059 78 133 1.7 5.2 0.00 0.00 0.00 81 1016.0
20260507091557 78 119 1.7 4.3 0.00 0.00 0.00 81 1016.1
20260507090057 79 117 1.7 4.3 0.00 0.00 0.00 81 1016.2
20260507084557 79 107 1.7 4.3 0.00 0.00 0.00 80 1016.2
20260507083101 78 119 0.9 2.6 0.00 0.00 0.00 80 1016.1
20260507081602 78 134 0.9 4.3 0.00 0.00 0.00 81 1016.2
20260507074558 79 139 1.7 4.3 0.00 0.00 0.00 81 1016.1
20260507073054 79 169 1.7 4.3 0.00 0.00 0.00 81 1016.0
20260507071551 79 118 1.7 4.3 0.00 0.00 0.00 80 1016.2
20260507070054 79 120 1.7 4.3 0.00 0.00 0.00 81 1016.4
20260507064607 79 113 1.7 4.3 0.00 0.00 0.00 81 1016.5
20260507063056 79 108 1.7 4.3 0.00 0.00 0.00 80 1016.6
20260507061552 79 153 0.9 3.5 0.00 0.00 0.00 80 1016.8
20260507060052 79 113 1.7 5.2 0.00 0.00 0.00 79 1017.0
20260507054604 79 133 1.7 3.5 0.00 0.00 0.00 80 1017.1
20260507053054 80 117 1.7 4.3 0.00 0.00 0.00 79 1017.3
20260507051555 80 101 2.6 5.2 0.00 0.00 0.00 79 1017.5
20260507044555 80 147 4.3 6.1 0.00 0.00 0.00 79 1017.8
20260507043100 80 146 2.6 5.2 0.00 0.00 0.00 79 1018.1
20260507041603 80 92 1.7 5.2 0.00 0.00 0.00 79 1018.4
20260507040058 80 164 2.6 4.3 0.00 0.00 0.00 79 1018.4
20260507034557 80 112 2.6 7.0 0.00 0.00 0.00 79 1018.4
20260507033055 80 124 2.6 5.2 0.00 0.00 0.00 80 1018.6
20260507031553 80 82 2.6 4.3 0.00 0.00 0.00 80 1018.5
20260507030059 81 128 3.5 6.1 0.00 0.00 0.00 79 1018.6
20260507024554 81 145 3.5 7.0 0.00 0.00 0.00 79 1018.7
20260507023109 81 121 2.6 5.2 0.00 0.00 0.00 79 1018.5
20260507021558 81 110 2.6 6.1 0.00 0.00 0.00 79 1018.5
20260507020053 81 91 4.3 7.8 0.00 0.00 0.00 78 1018.3
20260507014606 81 86 2.6 5.2 0.00 0.00 0.00 77 1018.2
20260507013109 82 94 1.7 6.1 0.00 0.00 0.00 75 1018.2
20260507011556 82 91 2.6 5.2 0.00 0.00 0.00 74 1018.1
20260507010058 82 110 2.6 5.2 0.00 0.00 0.00 72 1017.9
20260507004551 82 172 3.5 8.7 0.00 0.00 0.00 73 1017.9
20260507003050 82 151 1.7 6.1 0.00 0.00 0.00 72 1017.7
20260507001609 83 123 2.6 5.2 0.00 0.00 0.00 71 1017.4
20260507000052 83 138 1.7 7.0 0.00 0.00 0.00 69 1017.2
20260506234549 83 158 5.2 11.3 0.00 0.00 0.00 68 1016.9
20260506233057 83 123 3.5 9.6 0.00 0.00 0.00 68 1016.8
20260506231551 84 145 2.6 8.7 0.00 0.00 0.00 68 1016.7
20260506230051 84 150 4.3 9.6 0.00 0.00 0.00 66 1016.5
20260506224552 85 115 3.5 7.8 0.00 0.00 0.00 65 1016.4
20260506223106 85 138 4.3 8.7 0.00 0.00 0.00 64 1015.9
20260506221552 86 217 4.3 9.6 0.00 0.00 0.00 62 1015.8
20260506220056 87 171 4.3 10.4 0.00 0.00 0.00 60 1015.6